China Lake, CA

1:31 PM PDT on April 24, 2017 (GMT -0700)
China Lake NAWS

Weather History for KNID - September, 2012

Change the Weather History Date:

Saturday, September 29, 2012

  Actual Average Record
Temperature  
Mean Temperature 76 °F -  
Max Temperature 95 °F 87 °F 102 °F (2010)
Min Temperature 57 °F 58 °F 46 °F (2004)
Cooling Degree Days 11    
Growing Degree Days 26 (Base 50)    
Moisture  
Dew Point 33 °F    
Average Humidity 21    
Maximum Humidity 36    
Minimum Humidity 11    
Precipitation  
Precipitation 0.00 in - - ()
Sea Level Pressure  
Sea Level Pressure 29.96 in    
Wind  
Wind Speed 4 mph (ESE)    
Max Wind Speed 9 mph    
Max Gust Speed -    
Visibility 10 miles    
Events      
Averages and records for this station are not official NWS values.
T = Trace of Precipitation, MM = Missing Value Source: NWS Daily Summary

Daily Weather History Graph

Daily Weather History Graph

Search for Another Location

Airport or City:

Trip Planner

Search our weather history database for the weather conditions in past years. The results will help you decide how hot, cold, wet, or windy it might be!

Date:

Astronomy

Sep. 29, 2012 Rise Set
Actual Time 6:44 AM PDT 6:36 PM PDT
Civil Twilight 6:19 AM PDT 7:01 PM PDT
Nautical Twilight 5:49 AM PDT 7:31 PM PDT
Astronomical Twilight 5:19 AM PDT 8:01 PM PDT
Moon 6:13 PM PDT (9/29) 6:19 AM PDT (9/29)
Length of Visible Light 12h 42m
Length of Day
11h 51m
Full, 100% of the Moon is Illuminated
Sep 29
Full
Sep 29
Full
Oct 8
Last Quarter
Oct 15
New
Oct 21
First Quarter

Hourly Weather History & Observations

Time (PDT) Temp. Dew Point Humidity Pressure Visibility Wind Dir Wind Speed Gust Speed Precip Events Conditions
12:56 AM 66.9 °F 33.1 °F 28% 29.90 in 10.0 mi SSW 8.1 mph - N/A   Clear
1:56 AM 66.9 °F 34.0 °F 30% 29.91 in 10.0 mi WSW 6.9 mph - N/A   Clear
2:56 AM 64.9 °F 33.1 °F 31% 29.91 in 10.0 mi Calm Calm - N/A   Clear
3:56 AM 63.0 °F 34.0 °F 34% 29.91 in 10.0 mi Calm Calm - N/A   Clear
4:56 AM 61.0 °F 32.0 °F 34% 29.94 in 10.0 mi Calm Calm - N/A   Clear
5:56 AM 64.0 °F 34.0 °F 33% 29.95 in 10.0 mi Calm Calm - N/A   Clear
6:56 AM 57.0 °F 30.0 °F 36% 29.98 in 10.0 mi ESE 3.5 mph - N/A   Clear
7:56 AM 64.0 °F 34.0 °F 33% 30.01 in 10.0 mi Calm Calm - N/A   Clear
8:56 AM 75.0 °F 36.0 °F 24% 30.02 in 10.0 mi Calm Calm - N/A   Clear
9:56 AM 80.1 °F 36.0 °F 20% 30.02 in 10.0 mi NNE 3.5 mph - N/A   Clear
10:56 AM 84.0 °F 36.0 °F 18% 30.01 in 10.0 mi NE 3.5 mph - N/A   Clear
11:56 AM 89.1 °F 36.0 °F 15% 29.99 in 10.0 mi Calm Calm - N/A   Clear
12:56 PM 93.9 °F 36.0 °F 13% 29.97 in 10.0 mi NE 4.6 mph - N/A   Clear
1:56 PM 95.0 °F 34.0 °F 12% 29.95 in 10.0 mi ESE 8.1 mph - N/A   Clear
2:56 PM 93.9 °F 32.0 °F 11% 29.94 in 10.0 mi East 6.9 mph - N/A   Clear
3:56 PM 93.9 °F 32.0 °F 11% 29.93 in 10.0 mi NNW 4.6 mph - N/A   Clear
4:56 PM 93.9 °F 30.9 °F 11% 29.91 in 10.0 mi Variable 3.5 mph - N/A   Clear
5:56 PM 91.9 °F 30.0 °F 11% 29.91 in 10.0 mi Calm Calm - N/A   Clear
6:56 PM 86.0 °F 28.9 °F 13% 29.94 in 10.0 mi Calm Calm - N/A   Clear
7:56 PM 81.0 °F 28.0 °F 14% 29.95 in 10.0 mi WSW 9.2 mph - N/A   Clear
8:56 PM 73.9 °F 28.9 °F 19% 29.96 in 10.0 mi East 3.5 mph - N/A   Clear
9:56 PM 73.9 °F 28.0 °F 18% 29.98 in 10.0 mi SE 5.8 mph - N/A   Clear
10:56 PM 77.0 °F 33.1 °F 20% 29.97 in 10.0 mi South 9.2 mph - N/A   Clear
11:56 PM 73.9 °F 35.1 °F 24% 29.98 in 10.0 mi SW 6.9 mph - N/A   Clear